When you browse on this site, cookies collect data to enhance your experience and personalize the content and advertising you see.
Visit our Privacy Policy to learn more. By continuing to use the site, you agree to this use of cookies and data.
  • In Switzerland
  • List of Countries
  • For 7 days
  • Water Temperature
  • Satellite Maps
  • Weather Map
  • Weather Widgets
  • user-avatar
    Login

    Hourly Weather Brisbane

    Today, 25 May, Saturday

    Time Temperature Precipitation Wind Pressure Humidity
    00:00 +17°C° 0 mm 2 mps 765 mmHg 90%
    01:00 +17°C° 0 mm 2 mps 764 mmHg 91%
    02:00 +16°C° 0 mm 2 mps 764 mmHg 92%
    03:00 +16°C° 0 mm 2 mps 764 mmHg 92%
    04:00 +16°C° 0 mm 2 mps 764 mmHg 92%
    05:00 +16°C° 0 mm 2 mps 764 mmHg 91%
    06:00 +15°C° 0 mm 2 mps 764 mmHg 91%
    07:00 +15°C° 0 mm 2 mps 764 mmHg 90%
    08:00 +18°C° 0 mm 2 mps 764 mmHg 81%
    09:00 +21°C° 0 mm 1 mps 764 mmHg 71%
    10:00 +24°C° 0 mm 1 mps 764 mmHg 61%
    11:00 +25°C° 0 mm 1 mps 763 mmHg 56%
    12:00 +26°C° 0 mm 1 mps 763 mmHg 50%
    13:00 +27°C° 0 mm 1 mps 762 mmHg 44%
    14:00 +26°C° 0 mm 1 mps 762 mmHg 47%
    15:00 +25°C° 0 mm 2 mps 762 mmHg 51%
    16:00 +25°C° 0 mm 2 mps 762 mmHg 54%
    17:00 +23°C° 0 mm 2 mps 762 mmHg 62%
    18:00 +21°C° 0 mm 2 mps 762 mmHg 71%
    19:00 +20°C° 0 mm 1 mps 762 mmHg 79%
    20:00 +20°C° 0 mm 1 mps 763 mmHg 81%
    21:00 +19°C° 0 mm 1 mps 763 mmHg 83%
    22:00 +17°C° 0 mm 0 mps 763 mmHg 85%
    23:00 +19°C° 0 mm 1 mps 763 mmHg 87%

    Tomorrow, 26 May, Sunday

    Time Temperature Precipitation Wind Pressure Humidity
    00:00 +18°C° 0 mm 1 mps 762 mmHg 88%
    01:00 +18°C° 0 mm 1 mps 762 mmHg 90%
    02:00 +18°C° 0 mm 1 mps 762 mmHg 90%
    03:00 +16°C° 0 mm 2 mps 762 mmHg 90%
    04:00 +16°C° 0 mm 2 mps 762 mmHg 90%
    05:00 +16°C° 0 mm 2 mps 762 mmHg 88%
    06:00 +15°C° 0 mm 2 mps 762 mmHg 87%
    07:00 +15°C° 0 mm 2 mps 762 mmHg 85%
    08:00 +18°C° 0 mm 2 mps 762 mmHg 73%
    09:00 +20°C° 0 mm 2 mps 762 mmHg 61%
    10:00 +24°C° 0 mm 2 mps 762 mmHg 50%
    11:00 +25°C° 0 mm 2 mps 762 mmHg 43%
    12:00 +27°C° 0 mm 1 mps 761 mmHg 36%
    13:00 +28°C° 0 mm 1 mps 760 mmHg 29%
    14:00 +28°C° 0 mm 2 mps 760 mmHg 33%
    15:00 +27°C° 0 mm 2 mps 760 mmHg 36%
    16:00 +26°C° 0 mm 2 mps 759 mmHg 40%
    17:00 +24°C° 0 mm 2 mps 760 mmHg 47%
    18:00 +23°C° 0 mm 2 mps 760 mmHg 55%
    19:00 +20°C° 0 mm 2 mps 761 mmHg 62%
    20:00 +19°C° 0 mm 2 mps 761 mmHg 62%
    21:00 +18°C° 0 mm 2 mps 761 mmHg 63%
    22:00 +18°C° 0 mm 2 mps 761 mmHg 63%
    23:00 +17°C° 0 mm 2 mps 761 mmHg 60%

    Day after tomorrow, 27 May, Monday

    Time Temperature Precipitation Wind Pressure Humidity
    00:00 +17°C° 0 mm 2 mps 761 mmHg 57%
    01:00 +16°C° 0 mm 2 mps 760 mmHg 54%
    02:00 +16°C° 0 mm 2 mps 760 mmHg 53%
    03:00 +16°C° 0 mm 2 mps 760 mmHg 52%
    04:00 +15°C° 0 mm 2 mps 760 mmHg 50%
    05:00 +15°C° 0 mm 2 mps 760 mmHg 51%
    06:00 +15°C° 0 mm 2 mps 760 mmHg 51%
    07:00 +15°C° 0 mm 2 mps 760 mmHg 52%
    08:00 +18°C° 0 mm 2 mps 760 mmHg 47%
    09:00 +21°C° 0 mm 2 mps 760 mmHg 41%
    10:00 +25°C° 0 mm 2 mps 760 mmHg 36%
    11:00 +26°C° 0 mm 3 mps 759 mmHg 33%
    12:00 +28°C° 0 mm 3 mps 759 mmHg 29%
    13:00 +29°C° 0 mm 4 mps 758 mmHg 26%
    14:00 +28°C° 0 mm 4 mps 758 mmHg 28%
    15:00 +28°C° 0 mm 4 mps 758 mmHg 31%
    16:00 +27°C° 0 mm 4 mps 757 mmHg 33%
    17:00 +25°C° 0 mm 4 mps 758 mmHg 33%
    18:00 +22°C° 0 mm 4 mps 759 mmHg 34%
    19:00 +21°C° 0 mm 5 mps 759 mmHg 34%
    20:00 +19°C° 0 mm 4 mps 760 mmHg 34%
    21:00 +18°C° 0 mm 4 mps 760 mmHg 34%
    22:00 +17°C° 0 mm 4 mps 761 mmHg 34%
    23:00 +15°C° 0 mm 4 mps 761 mmHg 37%

    28 May, Tuesday

    Time Temperature Precipitation Wind Pressure Humidity
    00:00 +14°C° 0 mm 4 mps 761 mmHg 40%
    01:00 +14°C° 0 mm 3 mps 761 mmHg 43%
    02:00 +13°C° 0 mm 3 mps 761 mmHg 48%
    03:00 +12°C° 0 mm 3 mps 761 mmHg 52%
    04:00 +12°C° 0 mm 3 mps 761 mmHg 57%
    05:00 +11°C° 0 mm 3 mps 762 mmHg 59%
    06:00 +11°C° 0 mm 3 mps 762 mmHg 60%
    07:00 +10°C° 0 mm 3 mps 763 mmHg 62%
    08:00 +13°C° 0 mm 3 mps 763 mmHg 53%
    09:00 +16°C° 0 mm 3 mps 763 mmHg 44%
    10:00 +18°C° 0 mm 3 mps 763 mmHg 35%
    11:00 +19°C° 0 mm 2 mps 762 mmHg 31%
    12:00 +21°C° 0 mm 2 mps 761 mmHg 27%
    13:00 +23°C° 0 mm 1 mps 760 mmHg 24%
    14:00 +23°C° 0 mm 1 mps 760 mmHg 26%
    15:00 +23°C° 0 mm 1 mps 760 mmHg 28%
    16:00 +23°C° 0 mm 1 mps 760 mmHg 29%
    17:00 +20°C° 0 mm 2 mps 760 mmHg 32%
    18:00 +18°C° 0 mm 2 mps 761 mmHg 35%
    19:00 +16°C° 0 mm 2 mps 761 mmHg 38%
    20:00 +14°C° 0 mm 3 mps 761 mmHg 39%
    21:00 +13°C° 0 mm 3 mps 762 mmHg 40%
    22:00 +13°C° 0 mm 3 mps 762 mmHg 41%
    23:00 +12°C° 0 mm 3 mps 762 mmHg 42%

    29 May, Wednesday

    Time Temperature Precipitation Wind Pressure Humidity
    00:00 +11°C° 0 mm 3 mps 762 mmHg 43%
    01:00 +11°C° 0 mm 3 mps 761 mmHg 45%
    02:00 +11°C° 0 mm 3 mps 761 mmHg 47%
    03:00 +10°C° 0 mm 3 mps 761 mmHg 48%
    04:00 +10°C° 0 mm 3 mps 761 mmHg 50%
    05:00 +10°C° 0 mm 3 mps 762 mmHg 51%
    06:00 +10°C° 0 mm 3 mps 762 mmHg 53%
    07:00 +9°C° 0 mm 3 mps 762 mmHg 54%
    08:00 +12°C° 0 mm 4 mps 762 mmHg 48%
    09:00 +15°C° 0 mm 4 mps 762 mmHg 42%
    10:00 +18°C° 0 mm 4 mps 762 mmHg 36%
    11:00 +20°C° 0 mm 4 mps 761 mmHg 32%
    12:00 +22°C° 0 mm 4 mps 760 mmHg 29%
    13:00 +23°C° 0 mm 4 mps 759 mmHg 25%
    14:00 +23°C° 0 mm 4 mps 759 mmHg 27%
    15:00 +22°C° 0 mm 3 mps 759 mmHg 28%
    16:00 +22°C° 0 mm 3 mps 758 mmHg 29%
    17:00 +20°C° 0 mm 3 mps 759 mmHg 32%
    18:00 +18°C° 0 mm 3 mps 760 mmHg 34%
    19:00 +17°C° 0 mm 3 mps 760 mmHg 36%
    20:00 +16°C° 0 mm 3 mps 760 mmHg 38%
    21:00 +14°C° 0 mm 3 mps 760 mmHg 39%
    22:00 +13°C° 0 mm 3 mps 761 mmHg 40%
    23:00 +13°C° 0 mm 3 mps 761 mmHg 42%

    30 May, Thursday

    Time Temperature Precipitation Wind Pressure Humidity
    00:00 +13°C° 0 mm 2 mps 760 mmHg 43%
    01:00 +13°C° 0 mm 2 mps 760 mmHg 44%
    02:00 +12°C° 0 mm 2 mps 760 mmHg 45%
    03:00 +12°C° 0 mm 2 mps 761 mmHg 46%
    04:00 +12°C° 0 mm 2 mps 761 mmHg 47%
    05:00 +10°C° 0 mm 2 mps 761 mmHg 48%
    06:00 +10°C° 0 mm 2 mps 761 mmHg 50%
    07:00 +10°C° 0 mm 3 mps 762 mmHg 51%
    08:00 +13°C° 0 mm 3 mps 762 mmHg 48%
    09:00 +16°C° 0 mm 3 mps 762 mmHg 45%
    10:00 +18°C° 0 mm 3 mps 762 mmHg 41%
    11:00 +19°C° 0 mm 3 mps 762 mmHg 39%
    12:00 +20°C° 0 mm 4 mps 761 mmHg 37%
    13:00 +21°C° 0 mm 4 mps 761 mmHg 35%
    14:00 +21°C° 0 mm 4 mps 761 mmHg 35%
    15:00 +20°C° 0 mm 4 mps 761 mmHg 34%
    16:00 +20°C° 0 mm 4 mps 761 mmHg 34%
    17:00 +18°C° 0 mm 4 mps 762 mmHg 33%
    18:00 +16°C° 0 mm 5 mps 763 mmHg 33%
    19:00 +15°C° 0 mm 5 mps 764 mmHg 32%
    20:00 +14°C° 0 mm 5 mps 764 mmHg 33%
    21:00 +13°C° 0 mm 5 mps 764 mmHg 33%
    22:00 +12°C° 0 mm 5 mps 765 mmHg 33%
    23:00 +10°C° 0 mm 5 mps 765 mmHg 35%
    Show more